Wind_Speed
40 40 40 41 41 40 41 41 40 39 38 38 38 38 38 37 35 34 34 35 34 33 33 34 35 34 34 34 34 33 33 33 32 32 32 32 32 32 31 30 30 29 28 29 29 28 27 27 27 26 25 26 27 25 21 18 18 20 20 21 22 21 20 20 15 13 16 16 14 13 15 20 24 27 26 24 22 21 20 20 19 19 19 20 20
41 41 40 41 42 42 42 42 41 40 38 38 38 39 38 38 37 35 33 34 35 35 34 34 35 36 35 34 35 35 34 34 34 34 34 34 33 33 33 33 32 31 30 30 31 30 29 29 29 28 27 26 28 28 26 22 21 22 23 23 24 25 24 23 21 17 18 20 17 12 13 20 25 25 26 25 22 21 20 20 21 21 21 21 21
43 42 40 40 41 41 41 41 41 40 38 38 38 38 38 38 37 36 35 35 35 36 36 35 34 35 36 35 35 35 35 35 35 35 35 35 35 34 34 34 34 33 32 32 32 32 31 31 31 31 30 28 29 30 30 28 24 24 25 26 26 27 26 26 24 21 20 23 22 17 15 21 25 23 24 24 22 21 22 22 23 23 22 22 21
42 42 41 41 40 39 39 39 39 39 39 38 38 38 37 37 37 37 37 36 35 35 36 36 35 34 36 37 36 36 36 37 37 37 37 37 37 36 35 35 35 35 35 35 34 34 33 33 33 33 32 31 31 31 32 32 30 28 26 27 28 28 28 28 28 26 23 22 25 24 20 21 23 22 22 24 24 24 24 24 24 24 24 23 22
40 41 41 40 39 39 38 38 38 39 40 39 39 38 37 36 37 38 37 36 35 35 35 36 36 36 36 37 38 38 38 38 38 38 38 38 38 38 37 36 36 36 37 36 36 36 36 36 36 35 33 33 33 33 34 34 34 33 30 29 30 30 29 29 30 29 26 24 25 26 24 22 22 21 22 24 25 26 26 25 25 25 24 23 23
37 39 39 39 39 40 39 39 39 40 41 40 39 39 37 36 36 37 38 36 35 35 36 36 38 38 38 38 38 39 40 39 40 40 39 39 38 38 38 38 37 37 37 37 37 37 37 38 37 36 36 36 36 36 36 35 35 35 34 32 31 31 31 31 30 30 29 28 27 26 26 25 24 23 23 24 26 27 26 25 25 25 24 24 24
36 37 38 38 38 40 41 41 41 41 42 41 40 38 38 37 36 37 38 37 36 36 36 37 38 39 40 40 39 39 40 40 41 41 40 39 38 38 38 38 38 37 37 38 38 38 38 39 39 38 38 39 39 38 37 37 36 36 36 35 32 32 32 31 31 31 31 30 28 27 27 26 26 26 24 24 26 27 27 26 25 26 26 25 25
36 37 38 38 39 41 42 43 43 42 42 41 40 39 38 38 38 37 38 38 38 38 37 38 39 39 40 41 41 40 39 41 41 40 40 39 39 39 39 39 38 38 38 38 38 39 40 40 40 40 40 41 41 40 39 39 37 36 36 35 33 32 32 32 31 31 31 30 29 29 28 27 27 26 24 23 26 28 30 30 28 28 27 26 26
37 37 38 39 41 42 42 42 42 42 41 41 41 40 39 39 39 38 38 39 40 40 39 38 38 39 39 39 40 40 40 41 41 41 41 41 40 40 40 40 39 39 38 38 38 39 40 40 41 41 42 42 42 42 41 41 39 38 37 37 35 34 33 33 32 31 31 29 28 28 27 27 28 27 24 26 29 31 31 30 29 28 28 27 27
38 38 38 39 40 41 42 41 41 41 40 41 41 41 40 40 40 40 40 40 40 40 39 38 38 38 39 38 39 41 42 42 42 42 43 42 42 40 39 40 40 40 39 38 38 39 40 40 41 42 42 43 43 43 43 43 42 42 40 39 39 37 35 33 33 33 31 28 28 27 24 26 30 31 30 31 31 30 29 29 28 27 25 24 25
38 38 38 39 40 40 41 41 41 41 41 41 42 42 41 40 40 40 40 39 39 39 39 39 39 38 38 39 40 41 42 43 42 43 44 44 43 41 39 40 40 40 40 39 39 39 39 40 40 40 41 43 43 44 44 44 44 44 43 42 42 42 40 37 35 35 33 30 29 28 26 28 31 33 33 32 30 30 30 30 29 26 23 20 18
37 38 38 37 38 39 40 40 40 41 41 41 41 42 42 40 39 39 39 39 38 38 39 40 40 38 38 39 41 41 42 44 44 44 45 45 45 44 41 40 39 40 40 40 40 40 39 39 39 39 40 42 44 45 45 45 46 45 45 45 44 45 45 43 41 38 36 33 30 30 31 32 31 32 34 33 31 31 31 30 30 28 26 23 20
34 36 37 37 38 38 39 39 40 40 41 41 40 40 40 40 39 39 39 39 38 38 39 40 41 40 38 38 40 42 43 44 44 45 45 46 47 46 44 41 40 40 40 41 42 41 40 38 38 38 39 40 42 44 45 46 46 46 47 47 47 48 48 48 47 45 42 39 36 36 38 36 33 35 36 34 33 32 30 30 31 30 28 27 28
31 34 36 36 38 38 38 39 39 39 39 40 38 38 38 40 40 39 38 37 37 38 38 39 40 41 40 39 39 41 42 43 44 45 46 47 47 48 47 43 40 39 39 40 41 40 40 39 38 39 39 40 41 42 43 44 45 47 48 49 49 50 50 50 51 49 47 44 41 42 43 41 40 40 39 36 35 35 33 33 33 32 32 32 32
29 31 34 36 36 38 38 38 38 38 38 38 37 37 37 38 39 39 37 37 38 39 39 39 39 40 41 40 39 39 40 42 43 44 46 46 46 47 47 44 40 38 38 39 40 40 39 39 39 39 39 40 41 42 42 43 43 45 48 49 50 51 51 52 53 52 50 49 47 46 46 45 44 43 40 37 38 39 37 36 36 35 34 31 29
29 29 32 35 35 36 38 37 37 37 36 36 36 37 37 37 37 38 37 36 37 38 38 38 39 39 40 39 39 38 38 38 40 42 44 44 44 45 46 45 42 39 39 39 39 39 39 39 39 40 40 41 42 42 41 41 42 43 44 46 48 49 51 54 55 54 53 53 52 50 48 47 46 44 41 39 39 39 37 35 35 33 30 25 24
28 28 30 34 35 35 37 37 36 36 35 35 36 36 36 36 35 36 36 36 36 36 37 38 38 38 37 38 39 39 37 35 36 38 40 41 42 43 45 45 43 42 42 40 38 38 39 40 41 40 40 41 41 42 41 40 41 42 42 43 44 46 51 53 51 51 53 54 55 54 51 49 46 45 43 41 40 39 36 33 32 32 29 22 19
27 27 28 32 34 35 35 36 35 35 35 35 35 34 34 34 34 34 34 35 35 35 36 35 36 36 36 36 37 37 36 34 33 32 33 37 40 43 44 44 44 43 42 39 38 38 38 39 40 41 41 41 40 41 40 40 41 41 41 40 39 43 50 48 43 45 49 51 54 54 52 50 48 46 45 44 42 41 40 38 35 34 31 24 22
27 27 27 29 32 34 34 35 35 34 34 34 33 32 33 32 32 32 33 33 33 33 32 31 32 33 33 34 34 34 33 33 32 31 29 30 35 40 43 42 41 40 38 37 38 39 39 38 38 39 40 40 40 40 40 41 43 43 41 38 37 44 48 43 40 43 43 45 50 53 53 52 50 47 46 45 44 44 45 43 39 37 34 30 28
27 26 26 27 30 32 33 33 34 34 33 32 31 31 31 31 30 31 31 31 31 30 29 29 29 29 30 31 31 31 30 29 30 30 29 27 30 34 39 41 38 35 35 35 37 37 38 37 36 36 37 38 39 41 41 43 44 45 43 39 41 47 45 39 41 44 42 42 46 50 52 53 50 48 46 45 45 47 48 46 43 42 39 34 33
26 26 25 25 27 30 31 32 33 32 32 31 30 30 30 29 29 29 29 29 29 29 29 28 27 27 27 28 29 29 29 29 28 28 28 28 29 31 35 38 36 34 34 35 36 35 35 35 36 36 37 36 37 38 41 43 45 46 46 46 49 50 45 40 42 43 42 43 44 45 48 48 47 47 46 45 46 48 50 48 46 44 42 39 36
24 25 24 24 26 28 29 30 31 30 29 29 29 28 28 28 28 28 28 27 27 27 28 27 26 25 25 26 27 28 28 28 28 28 28 29 30 31 34 36 36 35 35 34 35 35 35 35 36 37 38 38 38 38 39 41 44 47 50 51 52 52 48 45 43 41 42 44 43 42 43 43 44 45 46 46 47 47 47 47 46 45 45 44 41
22 23 24 24 25 27 28 28 28 28 27 28 29 27 27 27 27 27 27 27 26 26 26 26 26 24 22 23 24 26 27 28 29 29 29 30 32 33 34 35 36 37 37 37 37 37 36 36 36 36 37 38 39 40 40 41 43 46 49 52 54 54 53 50 46 43 42 41 41 41 42 42 42 43 45 47 48 47 46 44 44 45 44 43 43
22 23 23 23 24 25 26 27 27 27 26 27 28 27 26 26 27 27 27 27 25 24 24 25 24 22 21 20 19 20 21 21 22 23 24 26 29 33 34 35 36 37 37 36 34 32 30 30 30 32 34 36 38 40 41 42 43 45 47 49 52 55 55 52 49 45 41 39 40 41 41 41 41 42 45 48 47 46 46 44 43 43 41 40 40
20 21 22 22 22 23 25 26 26 26 26 26 27 26 26 25 25 25 26 26 24 22 22 22 23 22 21 19 16 14 12 12 12 12 13 15 19 23 28 31 34 36 36 36 34 30 27 25 25 26 27 29 31 34 36 39 41 44 46 48 51 54 55 53 49 44 38 37 38 39 39 40 42 43 44 44 41 41 42 41 39 38 37 37 37
16 19 20 21 21 21 23 24 25 25 25 26 26 25 26 26 25 24 24 24 23 21 21 21 22 20 19 17 16 13 9 8 7 6 5 5 6 8 12 15 18 22 25 29 31 32 32 30 30 30 30 31 31 32 34 36 37 39 42 45 48 51 52 51 47 41 37 35 35 36 36 37 39 41 39 38 38 40 40 39 35 33 34 34 32
13 15 17 19 20 20 21 22 24 24 24 24 24 25 26 26 24 23 23 22 21 20 19 19 19 19 19 18 16 11 10 10 9 7 5 4 3 2 1 1 4 6 9 13 16 20 24 26 29 32 34 37 38 39 41 42 42 43 43 44 47 49 51 51 47 41 36 34 31 32 34 34 35 37 37 37 39 39 38 37 33 32 34 34 31
10 12 14 16 17 18 19 21 22 21 19 19 19 20 22 24 23 21 20 20 20 19 18 17 17 17 17 16 14 14 14 13 12 10 7 6 6 5 4 4 3 4 6 8 10 12 15 18 22 25 28 32 35 37 39 41 42 44 45 46 48 49 50 51 47 40 36 33 30 32 35 34 33 34 35 35 36 36 38 40 39 38 39 37 32
8 9 12 14 14 14 16 20 22 20 18 17 14 12 14 18 19 16 15 17 18 19 18 15 14 15 15 16 18 19 17 15 14 12 10 9 8 7 6 5 4 4 5 7 8 9 11 14 17 20 23 27 29 30 32 34 35 37 39 41 43 44 45 45 43 40 38 37 37 40 39 35 33 34 36 37 39 41 44 45 44 43 42 40 36
12 11 12 12 11 12 14 19 23 23 21 20 19 17 15 15 17 15 13 13 15 17 17 16 17 19 20 19 18 18 18 17 14 12 11 10 8 7 6 6 6 7 8 8 8 9 9 11 14 17 19 22 24 27 29 31 32 34 36 37 38 40 42 43 42 42 41 41 42 45 43 38 36 37 37 37 39 42 45 48 47 44 42 40 36
17 16 17 17 16 17 20 22 23 24 24 25 26 26 24 22 20 19 17 15 15 16 17 18 18 18 19 20 19 17 16 15 13 11 10 8 7 6 7 8 9 10 11 11 11 11 12 12 15 18 19 20 22 25 27 28 30 32 34 36 37 38 39 42 44 43 42 41 43 45 45 42 40 38 37 37 38 40 44 48 47 45 44 41 37
18 16 18 20 21 22 23 23 24 25 25 26 28 29 29 27 25 24 23 22 21 20 21 21 20 19 19 20 19 17 15 12 10 9 8 7 6 6 7 10 11 11 11 12 13 15 15 15 17 20 21 22 23 25 26 28 30 31 32 34 36 37 38 41 44 43 40 40 40 41 42 42 41 40 40 43 43 42 43 44 44 43 42 39 36
19 18 19 21 22 22 22 23 24 24 24 25 26 27 28 26 24 24 26 26 26 25 23 22 21 21 19 17 16 15 13 10 8 6 5 5 5 6 8 10 10 10 11 13 15 17 18 19 20 22 23 24 25 28 29 30 31 33 33 34 37 39 41 43 44 43 42 41 40 40 40 40 40 39 40 44 45 42 41 42 43 42 38 33 31
20 20 20 21 21 21 21 22 22 22 22 24 25 25 26 27 27 25 23 23 23 23 22 20 17 16 15 14 13 12 11 10 8 6 5 4 5 6 8 9 10 10 11 12 13 15 17 19 21 24 25 26 27 29 30 32 34 35 36 37 38 41 43 44 43 42 41 40 39 40 41 41 40 39 38 41 43 42 40 40 40 38 35 33 33
19 19 20 21 21 21 22 23 23 23 22 23 24 24 25 26 26 24 22 20 20 20 19 18 15 12 11 11 12 12 12 11 9 7 6 7 7 8 9 9 9 10 10 11 12 13 15 18 20 23 25 26 28 29 30 32 34 35 37 39 40 41 43 44 43 42 41 39 38 38 39 40 41 42 41 40 39 39 39 41 41 39 38 38 36
19 19 19 21 21 21 22 23 24 24 23 22 23 24 24 22 21 20 20 19 19 18 17 15 13 11 9 8 9 9 11 12 10 8 8 9 9 9 10 9 8 10 11 12 13 14 16 17 19 21 23 25 27 29 30 31 33 35 37 40 41 42 43 43 43 41 38 37 37 38 39 39 40 41 41 40 41 41 42 43 44 43 42 40 38
18 18 18 19 20 21 23 23 23 23 22 22 22 21 20 20 20 19 18 17 19 18 16 14 14 12 9 7 5 8 11 12 11 7 6 6 7 8 7 6 7 10 13 14 15 16 17 18 19 21 22 24 25 27 28 30 32 34 37 40 41 43 44 45 45 43 39 36 35 36 36 37 39 40 40 39 40 43 43 43 42 39 40 42 41
17 18 19 20 20 21 21 21 21 21 21 20 19 19 19 19 18 16 15 15 16 16 14 14 14 12 10 7 5 8 10 9 8 5 3 2 4 6 6 6 8 11 12 14 16 17 18 19 20 21 22 23 25 26 28 29 31 33 35 38 40 42 43 44 43 42 39 36 35 36 36 35 35 37 39 39 38 37 37 39 40 39 38 39 38
17 16 17 19 19 20 20 19 19 20 21 20 18 18 18 16 15 13 13 12 11 11 11 12 12 10 8 6 6 8 7 6 7 5 3 2 5 6 6 8 10 11 11 12 15 17 17 18 20 22 22 23 24 25 26 28 30 32 33 36 40 41 40 38 36 35 35 32 31 32 33 32 32 34 37 40 43 44 42 39 38 39 39 37 36
20 19 19 21 23 24 26 26 25 25 25 24 23 22 21 19 19 20 20 18 16 15 13 13 13 11 8 6 6 6 5 5 8 9 7 7 8 9 10 10 10 11 11 13 15 16 17 18 20 21 20 20 21 23 25 27 30 32 33 35 37 36 34 32 27 25 28 31 31 32 32 32 35 35 28 21 21 29 40 45 42 40 38 36 34
25 26 26 26 27 28 29 28 27 28 28 27 27 26 25 24 25 25 25 24 23 22 18 14 12 10 8 7 7 8 9 11 12 12 11 12 12 12 10 10 10 11 13 15 15 15 16 18 19 18 17 17 18 20 23 26 29 30 32 32 32 28 30 36 35 26 17 12 12 16 18 16 16 17 16 19 19 15 20 31 36 37 36 36 35
27 27 27 27 28 29 28 27 28 29 29 29 28 27 26 26 26 25 25 24 23 22 21 19 16 15 16 15 14 13 14 15 15 14 14 14 13 11 10 10 12 13 14 14 14 14 16 18 18 15 14 15 16 18 20 23 25 26 27 28 28 25 25 35 43 42 38 36 35 30 24 23 27 24 18 24 35 37 33 32 34 37 37 35 33
28 28 29 30 30 30 28 27 28 29 28 28 27 26 26 26 26 25 24 24 23 21 20 20 19 19 20 20 18 17 17 17 17 16 15 14 12 11 11 13 14 14 14 13 13 14 16 16 14 12 11 12 14 15 16 17 19 21 22 24 24 24 24 30 38 41 41 41 45 49 47 45 45 45 41 37 39 41 39 35 35 36 34 29 25
30 30 30 31 30 29 29 28 28 28 27 27 28 27 26 26 25 24 23 22 22 21 20 19 19 19 19 20 20 20 19 18 17 16 14 13 12 12 13 15 14 13 13 13 12 13 13 11 10 9 9 9 10 11 12 12 14 16 18 19 21 22 24 26 30 35 38 38 39 43 47 46 44 43 41 40 39 38 33 29 30 31 29 26 22
31 30 29 29 29 29 29 28 28 28 27 27 27 26 25 24 23 22 21 20 19 19 19 19 20 21 21 21 21 19 17 16 15 14 12 11 11 13 14 14 13 12 13 13 11 10 9 8 9 9 8 8 10 10 10 10 12 13 14 16 17 19 21 24 27 31 34 36 36 38 41 42 40 38 37 37 36 33 29 24 23 23 23 23 22
30 29 29 28 28 28 28 28 28 28 27 26 25 23 22 21 20 19 18 17 17 18 19 20 21 22 22 22 21 19 18 17 16 15 12 11 11 13 14 13 11 11 11 10 8 7 8 9 9 9 9 8 9 10 10 11 11 12 13 14 14 15 17 20 24 27 29 30 32 34 36 36 35 34 34 34 32 29 26 21 18 17 19 21 22
31 30 29 28 27 27 26 26 26 26 25 24 24 22 20 19 18 18 18 18 18 19 19 20 20 20 21 21 21 21 20 18 18 17 16 15 13 13 14 13 11 9 9 8 7 7 7 8 8 8 8 8 9 9 10 11 12 11 11 12 13 14 15 17 20 23 25 25 25 27 30 31 31 30 29 29 27 25 24 21 18 18 20 22 24
30 29 28 28 27 26 25 24 24 24 23 22 22 22 21 20 19 19 19 20 20 20 20 20 20 20 20 21 23 23 22 20 19 20 20 19 17 16 16 15 13 10 9 9 9 9 8 8 8 8 8 8 9 9 10 11 13 13 13 13 13 12 13 14 15 18 20 21 22 23 24 26 26 25 23 23 22 23 23 22 21 21 22 23 24
29 28 27 27 27 26 25 24 24 23 23 22 21 21 21 21 20 20 20 20 20 20 20 20 21 20 20 21 23 25 25 24 23 23 22 21 20 19 18 17 15 13 13 13 14 13 12 10 9 10 11 11 12 12 12 13 13 13 13 13 14 13 13 13 14 14 15 16 17 19 21 21 21 20 18 17 18 20 21 21 21 21 22 22 23
29 28 28 27 26 26 25 25 24 23 23 22 22 21 20 20 20 20 20 20 20 19 19 20 21 21 22 23 24 25 25 25 26 25 25 23 22 20 19 18 16 15 15 16 16 15 14 13 12 12 13 13 13 14 13 13 13 13 12 11 11 12 12 12 12 12 12 13 13 14 15 17 17 17 16 16 16 17 18 18 18 19 19 19 21
29 29 29 28 28 27 27 27 26 24 23 22 22 21 21 21 20 20 20 20 19 18 18 19 20 21 22 25 26 26 26 27 28 28 28 26 24 22 21 20 18 16 15 16 15 14 15 15 13 11 11 11 12 12 12 11 11 11 11 9 9 9 9 10 10 9 9 9 10 11 12 13 14 14 15 15 14 14 15 16 17 17 16 16 17
Wind_Direction
203 204 205 205 206 207 208 208 207 206 206 205 206 207 207 206 206 206 205 206 206 207 208 209 209 210 210 211 211 211 211 211 213 213 213 214 214 215 215 215 216 218 219 220 221 222 221 221 224 225 222 222 224 222 221 225 230 229 227 224 220 219 221 219 220 233 237 234 236 241 237 228 219 218 223 228 231 233 236 240 242 244 248 251 252
203 205 206 206 207 207 208 208 208 207 206 206 207 208 208 208 207 206 206 206 206 207 207 208 209 209 209 211 211 211 211 211 212 212 213 213 214 214 214 215 216 217 218 220 220 220 222 223 224 226 226 226 226 225 223 223 227 230 229 228 227 224 223 223 222 227 236 234 230 234 231 221 217 218 222 226 231 232 231 233 236 241 247 251 254
202 204 206 207 208 209 208 208 207 207 207 207 208 209 209 209 208 207 207 207 207 208 209 209 209 209 209 210 210 210 212 212 212 213 214 213 213 213 213 214 215 216 217 219 220 219 220 222 225 225 225 227 227 227 225 223 226 230 230 229 229 228 225 225 224 224 231 234 232 229 222 216 217 221 226 228 232 233 231 231 235 240 245 249 253
201 203 205 207 209 209 209 208 207 207 207 207 208 209 209 209 209 209 209 209 208 209 210 210 210 210 209 209 209 210 212 213 214 214 216 215 214 214 213 214 215 216 218 219 220 219 219 221 224 224 223 224 227 228 227 226 227 229 230 230 230 230 228 227 228 229 230 234 235 232 227 222 222 226 230 230 230 231 231 232 235 239 243 247 251
200 202 204 206 207 208 208 208 207 207 207 208 209 209 209 209 209 209 209 209 210 210 210 210 211 211 210 210 211 211 212 214 215 215 217 217 216 215 214 214 216 217 219 220 220 220 220 221 223 224 222 222 224 227 227 228 228 228 230 230 230 230 229 228 230 231 231 233 237 236 234 234 233 230 228 227 225 227 229 232 235 238 241 244 247
201 202 204 205 206 207 207 207 207 208 208 209 209 209 208 208 209 209 209 209 210 211 211 210 211 212 213 213 213 213 214 215 216 217 217 217 217 217 217 216 217 218 219 221 221 221 222 223 224 223 221 221 223 224 226 227 227 227 228 229 230 229 228 228 229 230 230 233 236 238 236 236 237 235 233 229 224 223 225 228 232 236 238 240 242
202 203 205 205 206 206 206 207 207 208 208 209 209 209 208 208 209 209 209 209 209 210 211 212 212 213 215 215 215 215 215 215 217 217 217 217 217 217 218 219 219 220 221 222 223 223 224 225 225 224 223 223 223 224 225 226 226 226 227 228 229 227 225 226 226 226 228 230 232 234 234 234 235 236 237 234 228 227 227 225 225 229 233 236 238
201 203 204 205 206 207 207 207 207 208 208 208 209 209 209 209 209 209 209 209 210 211 212 212 213 214 216 216 216 216 217 217 217 217 217 217 217 218 219 220 220 221 222 224 224 225 226 226 226 226 226 226 226 226 226 225 225 226 227 227 227 227 224 222 222 223 225 226 227 229 231 231 232 233 234 228 223 224 226 225 224 227 229 231 234
199 201 203 204 206 207 208 208 208 207 207 207 208 209 209 209 209 209 210 211 212 213 213 214 215 215 216 217 217 217 218 218 218 217 217 217 217 218 219 220 221 222 222 224 225 226 227 227 228 229 229 229 229 229 228 228 226 226 226 225 225 225 224 222 220 220 221 223 225 225 225 227 227 227 224 220 219 222 225 225 227 231 233 233 234
198 200 202 204 205 206 207 207 207 207 206 207 207 208 209 209 209 209 211 212 212 213 214 214 216 216 216 217 217 218 219 220 220 219 218 218 218 218 219 220 222 222 223 224 225 227 228 229 230 231 231 232 232 231 231 230 230 230 229 226 224 223 223 222 220 220 220 222 223 221 221 225 226 223 223 224 225 226 224 222 225 230 232 234 237
197 199 201 203 203 204 206 206 207 207 206 206 207 208 208 208 209 210 210 211 212 212 212 214 216 217 216 216 217 218 220 221 221 221 221 220 220 219 220 221 222 223 224 224 225 227 229 230 231 232 232 233 233 234 234 233 232 232 232 231 229 226 224 222 221 221 221 223 225 221 220 226 227 224 225 227 227 226 225 223 223 224 222 223 232
198 200 201 201 202 202 204 205 206 207 207 207 207 208 208 209 210 210 210 211 211 210 211 213 215 216 216 217 217 219 221 222 222 222 222 222 222 222 222 223 223 223 224 225 227 228 229 230 231 231 232 232 233 233 234 234 234 234 234 234 234 233 230 227 225 223 221 222 224 223 223 228 229 226 225 225 225 227 226 224 222 222 221 221 226
200 201 201 200 200 201 202 204 206 207 208 208 208 208 208 209 210 210 211 211 210 210 211 213 215 216 216 216 218 220 222 223 223 223 224 224 224 224 224 225 225 225 225 226 228 228 229 229 230 231 232 233 233 232 232 233 234 235 235 235 235 235 235 233 232 230 226 223 222 225 227 227 228 229 227 222 222 223 223 222 222 222 221 222 227
202 201 201 200 200 200 201 202 204 207 208 208 209 209 209 209 210 211 211 211 211 211 212 213 215 216 216 217 219 221 223 224 224 224 224 225 225 225 226 227 228 228 229 229 230 230 230 229 229 231 232 232 233 232 231 231 231 232 233 233 233 235 235 235 234 233 230 228 226 229 231 230 229 232 229 223 220 220 219 219 220 221 222 226 232
204 201 200 201 200 199 199 201 203 205 206 207 208 209 210 211 211 211 211 211 212 213 214 215 216 217 218 219 220 222 224 225 225 225 225 226 226 227 227 228 230 232 233 234 234 234 233 232 232 232 232 233 233 232 231 230 229 230 230 231 232 234 234 235 234 232 231 231 231 233 235 235 234 234 231 225 223 224 224 225 225 225 225 227 230
205 201 200 201 201 199 199 200 202 203 204 205 207 209 211 212 212 211 211 213 214 215 216 217 218 219 220 220 222 224 226 226 226 227 227 226 226 227 227 228 231 233 235 236 237 237 236 236 235 235 235 235 235 235 233 231 229 229 230 230 231 233 235 236 237 235 233 233 234 235 236 237 237 236 232 227 225 226 226 227 226 222 218 217 218
206 202 200 200 201 200 200 199 200 201 202 204 206 208 210 212 212 212 212 213 215 216 218 219 220 221 221 221 223 226 228 228 229 229 228 227 226 226 226 228 231 234 236 238 239 240 239 238 237 237 238 238 238 237 236 234 231 230 230 231 231 233 236 238 238 237 236 236 237 237 237 237 238 237 234 230 228 225 220 218 217 211 206 206 207
208 205 201 201 200 200 201 200 199 200 201 203 205 207 209 211 213 213 213 214 216 217 219 221 222 223 223 224 225 228 230 231 232 233 231 228 226 225 225 226 229 233 236 238 240 241 242 242 241 240 240 241 241 240 239 236 234 232 232 232 231 234 238 237 236 237 238 238 239 239 238 238 238 237 236 232 229 225 219 216 214 206 202 203 202
211 209 205 202 201 201 201 200 200 200 201 203 205 206 208 210 212 213 215 217 219 220 221 222 224 225 226 227 228 230 232 233 234 235 235 231 228 226 224 225 228 231 234 237 240 242 243 244 244 243 243 244 243 243 242 239 236 235 235 233 234 237 240 237 235 236 236 235 236 236 236 236 236 235 235 232 229 225 222 220 215 207 203 203 199
213 212 209 205 201 201 201 200 199 200 201 202 204 205 207 208 210 212 214 216 219 221 222 223 225 226 227 228 231 232 234 235 236 236 238 237 234 230 226 224 227 230 233 236 239 242 244 246 247 248 248 247 246 245 244 242 240 239 237 235 236 241 243 241 238 237 235 234 234 234 234 234 233 232 232 229 226 224 223 222 217 211 207 204 199
213 212 210 206 202 200 200 199 199 200 200 200 202 205 207 207 208 210 213 215 217 219 221 224 226 228 229 229 231 234 236 238 239 239 240 240 240 238 233 229 230 232 234 238 240 242 244 246 248 249 250 250 250 248 247 246 244 242 239 238 241 245 246 244 241 239 236 235 235 234 233 232 231 229 229 226 224 222 221 220 219 216 212 207 202
210 208 207 206 202 199 199 198 198 198 198 198 200 203 205 207 209 210 211 212 215 217 219 222 225 227 229 229 231 233 236 238 240 241 241 240 240 240 239 238 238 236 235 237 240 242 245 246 248 250 251 253 253 251 250 249 247 245 244 245 246 248 247 245 243 240 235 234 233 232 231 230 228 227 226 225 224 223 221 220 219 218 217 215 210
205 203 203 204 201 197 197 196 194 195 195 196 199 202 203 205 207 209 210 210 213 215 217 219 222 225 226 226 228 230 232 235 238 239 241 241 240 239 240 242 243 240 237 238 241 243 245 247 249 251 253 254 255 254 253 252 250 249 249 250 250 249 248 246 244 241 236 233 232 231 230 228 225 225 224 224 224 223 222 221 219 218 218 218 217
197 197 198 200 198 194 193 192 191 192 193 195 198 200 201 202 204 206 207 207 208 211 213 215 218 221 223 223 223 225 228 232 234 236 239 239 239 239 239 241 241 238 235 238 243 246 248 249 251 253 255 256 257 258 257 255 254 253 254 254 254 252 248 246 244 241 237 233 231 231 231 229 226 226 226 225 225 224 223 222 221 219 218 217 217
187 189 192 194 193 191 190 190 190 191 193 195 197 198 198 200 202 203 204 205 205 207 208 209 211 214 217 218 218 221 225 226 226 229 233 235 236 238 241 243 243 240 238 240 244 247 249 251 252 254 257 259 260 262 262 260 257 256 256 256 255 253 248 246 245 242 238 235 234 234 235 233 231 231 230 229 225 223 222 222 220 218 216 215 214
181 185 187 189 189 187 186 188 189 191 195 197 197 197 197 197 199 200 200 201 203 203 203 204 206 206 205 207 211 215 209 194 183 186 200 214 225 233 242 250 252 251 251 252 253 255 257 259 262 263 265 266 268 270 271 270 268 265 262 260 258 254 251 247 245 244 242 242 242 243 243 242 239 236 233 229 223 218 217 217 215 213 211 209 206
164 173 178 183 187 185 182 183 185 186 190 193 194 196 196 196 196 197 198 198 199 199 197 195 195 195 197 202 201 184 153 135 125 119 123 119 100 103 101 304 281 276 275 272 270 270 270 271 273 272 272 272 272 273 274 275 275 273 271 268 265 261 258 253 249 246 246 247 250 254 256 254 248 239 229 222 218 214 210 209 208 207 207 205 202
146 155 164 172 178 180 179 176 174 172 172 175 182 187 190 191 192 193 195 195 192 189 188 189 190 191 192 187 165 133 118 116 112 103 100 93 78 71 61 40 8 327 309 298 294 292 288 286 285 282 280 280 278 278 277 276 274 273 271 269 267 265 263 260 256 251 247 245 249 255 256 254 249 237 224 217 214 208 202 202 204 204 202 201 200
126 143 161 169 173 176 174 166 158 151 144 142 145 154 169 179 181 182 187 194 196 197 194 188 177 166 156 149 140 127 113 107 105 100 96 92 84 76 69 60 45 16 350 335 326 318 309 303 298 294 293 293 291 289 286 283 281 278 275 272 270 268 266 263 259 255 248 242 240 242 243 242 236 227 217 213 209 203 197 198 201 202 200 199 200
94 102 122 136 143 147 145 142 141 140 136 131 123 115 120 142 154 152 154 169 186 194 188 171 156 146 133 123 122 120 111 104 103 101 99 97 90 81 72 59 40 22 10 3 358 349 338 328 320 313 308 303 299 295 292 291 289 286 283 280 276 272 269 265 261 257 251 242 236 236 235 231 226 221 216 211 205 198 194 196 199 201 199 197 198
90 88 96 101 107 116 122 123 126 129 129 127 123 114 105 105 112 114 115 121 133 142 142 134 133 136 128 114 106 104 102 101 100 96 94 91 85 74 59 38 22 12 9 8 4 356 347 336 326 320 313 305 297 294 293 293 291 289 288 287 282 277 273 268 264 260 253 245 239 235 232 228 223 219 213 206 200 195 194 197 199 198 197 196 195
95 90 94 98 103 110 116 119 120 121 121 121 122 118 109 101 98 100 103 107 110 115 119 118 117 118 118 114 109 100 92 90 89 90 90 86 77 61 39 22 12 6 5 4 358 351 345 335 324 320 316 308 303 300 298 295 293 291 290 289 286 283 278 273 270 265 257 249 243 238 234 230 225 218 209 201 197 196 196 196 196 196 196 194 189
103 100 100 102 105 109 115 119 119 120 120 120 120 119 116 112 107 104 104 105 107 108 109 112 113 111 109 107 103 96 88 82 81 88 90 76 59 40 23 16 13 11 7 359 350 344 339 330 322 319 316 310 307 306 302 299 297 294 291 289 287 285 283 281 278 272 264 256 248 242 239 234 226 218 209 201 197 197 197 195 194 193 191 186 180
106 105 105 105 104 106 113 121 124 125 126 125 124 123 123 123 122 119 114 110 109 108 105 102 103 105 106 103 93 82 72 65 73 89 86 62 47 33 21 14 13 10 3 352 342 335 329 323 319 318 316 312 309 307 305 303 302 300 296 293 289 286 284 282 279 274 270 263 254 245 240 236 229 220 211 203 200 198 195 193 193 190 184 179 177
104 103 105 106 103 101 107 116 122 126 126 126 127 128 128 128 129 130 128 124 119 114 111 108 103 98 99 95 81 63 51 50 65 83 70 46 31 21 15 11 8 2 353 345 338 329 321 318 318 318 317 314 312 310 308 307 306 303 300 297 292 288 285 280 275 271 268 265 259 250 242 236 230 222 215 208 203 198 193 191 189 186 182 179 177
100 99 101 105 103 100 102 109 115 117 117 118 124 128 130 130 129 128 130 133 131 125 121 119 113 106 104 96 75 56 46 43 47 53 48 35 20 11 10 7 358 347 340 338 335 328 322 322 322 321 319 317 315 314 312 311 310 307 304 301 296 291 286 279 274 270 265 261 261 256 247 239 232 225 218 212 205 200 195 191 188 184 180 177 173
100 101 103 105 103 100 100 103 105 105 104 105 108 110 113 118 119 116 117 125 133 136 139 142 140 135 131 119 82 51 42 39 40 44 43 33 18 12 9 359 346 339 336 335 333 330 329 329 327 325 323 321 320 319 318 316 316 314 312 309 303 295 289 282 276 271 264 259 260 259 253 243 235 228 221 215 209 203 196 188 182 178 176 172 169
109 113 114 111 107 104 102 103 105 105 104 104 104 101 101 106 111 115 120 130 140 149 155 157 155 150 140 119 72 43 40 47 62 74 72 42 30 27 17 357 346 340 336 334 332 330 330 330 328 327 327 327 327 327 325 324 324 321 319 317 312 305 298 288 277 269 263 257 256 259 260 254 245 234 225 216 209 202 194 184 174 167 166 168 166
107 117 122 116 108 101 95 93 94 94 92 92 95 97 97 95 92 93 103 115 126 131 127 122 125 130 127 101 56 38 41 55 64 64 61 56 49 36 19 4 352 342 334 331 330 331 330 328 326 328 330 332 334 335 335 335 334 330 328 327 323 319 314 303 285 269 262 258 255 257 259 260 258 250 234 219 208 197 184 175 168 163 162 163 162
88 93 99 99 93 87 82 78 77 75 73 71 70 70 70 68 64 63 65 63 63 69 83 97 109 115 111 86 56 44 45 53 50 47 44 37 27 15 6 3 356 343 334 332 332 332 331 325 323 327 331 335 340 342 345 347 345 342 342 341 337 338 345 344 324 290 268 260 258 257 258 261 263 255 236 215 206 195 178 166 162 161 158 153 148
82 80 82 82 81 80 76 73 70 68 67 65 63 59 58 58 58 58 56 52 51 55 62 74 91 91 69 50 46 49 54 56 51 43 35 23 13 6 4 5 358 344 336 334 333 332 329 323 320 323 330 336 343 348 351 354 353 352 353 352 346 354 20 33 30 19 360 333 302 276 262 261 267 252 204 148 116 113 136 142 142 141 134 128 127
81 77 75 74 73 72 71 69 68 66 64 63 61 58 56 56 54 53 51 48 48 50 52 51 53 49 41 39 44 49 50 47 37 26 21 14 7 2 0 358 350 339 333 334 334 331 326 320 316 320 329 336 343 350 355 358 359 359 1 0 354 357 28 54 58 55 50 50 51 51 55 66 68 64 76 105 109 104 100 101 104 107 109 114 122
79 74 73 72 71 70 69 68 67 65 62 61 59 56 55 54 52 49 48 45 44 45 44 39 37 36 36 38 41 39 35 29 21 16 13 9 5 3 0 355 347 338 334 337 337 331 323 318 317 327 339 341 344 352 359 4 8 9 10 12 11 11 27 51 64 69 69 69 70 68 65 65 69 69 66 69 82 92 95 96 99 103 109 117 126
77 74 73 72 70 68 66 65 65 63 60 59 58 54 52 51 49 46 45 43 40 39 36 32 31 30 29 31 32 27 21 18 15 12 10 5 2 1 356 350 346 341 339 342 340 332 327 327 331 344 354 352 352 1 10 15 21 22 18 19 27 35 41 49 59 70 76 77 79 81 80 77 78 83 84 81 81 85 90 97 103 110 119 130 141
75 73 72 71 69 66 64 63 62 62 60 58 56 53 51 50 48 45 43 40 38 35 32 29 29 29 27 27 26 21 14 10 4 360 2 4 3 359 354 350 349 348 346 345 345 346 351 358 359 359 2 2 1 6 16 26 35 40 37 32 35 44 55 63 69 76 81 83 83 84 87 89 91 93 95 95 95 97 99 103 109 119 132 148 160
72 71 71 71 70 68 66 65 64 64 63 61 60 57 54 52 50 47 45 43 40 37 32 30 30 30 27 24 21 16 15 14 7 2 5 9 3 358 358 357 357 358 358 359 5 15 22 24 19 13 14 15 11 14 24 35 43 48 49 47 46 53 65 75 79 80 81 86 89 90 90 92 95 99 101 102 105 108 111 117 129 145 156 163 169
72 71 70 71 71 71 69 68 68 68 67 66 64 62 58 56 54 51 49 47 44 40 35 32 31 30 27 24 21 19 18 18 16 16 22 25 19 12 12 11 10 14 17 20 28 34 35 36 36 31 28 29 30 31 36 41 45 49 50 48 50 57 66 72 79 85 88 89 91 94 97 99 101 105 110 116 121 126 132 140 153 165 169 169 169
71 71 71 71 71 70 68 67 68 68 68 68 67 64 61 59 55 51 49 46 43 40 37 34 33 31 28 27 26 25 22 20 22 26 31 32 31 30 29 26 26 30 33 33 33 34 34 38 43 43 42 44 46 46 47 49 49 51 53 52 51 56 62 66 72 83 92 97 98 100 104 109 113 116 122 128 133 138 143 149 157 164 168 171 174
72 72 71 70 69 68 68 68 69 68 68 68 67 64 62 60 56 51 49 48 45 42 39 36 34 32 30 29 28 28 26 25 27 30 32 32 34 38 39 37 37 40 42 40 37 35 34 39 49 58 62 64 63 61 59 58 57 56 56 57 57 57 60 66 72 78 83 93 103 109 110 111 113 116 121 127 135 141 145 149 155 162 167 172 176
72 72 73 72 71 70 70 71 71 70 69 68 66 63 61 60 57 53 50 49 47 44 40 38 36 35 34 34 33 32 30 28 29 31 32 33 36 40 43 44 44 43 40 36 35 36 39 43 55 65 67 66 66 65 60 57 59 61 57 52 52 55 56 60 69 78 83 90 99 107 111 114 116 119 123 129 137 146 153 158 160 161 163 166 170
76 76 76 75 74 74 72 71 70 69 68 66 65 64 62 60 58 57 54 51 47 44 41 40 39 38 38 39 39 37 36 34 33 33 34 35 37 39 41 43 45 46 43 40 40 43 45 43 43 48 52 51 51 54 53 49 51 54 51 41 38 45 55 62 66 73 86 100 108 113 119 126 130 133 135 136 137 142 151 159 161 158 156 156 160
Height
754 757 759 762 764 766 769 771 774 777 779 781 783 785 787 789 791 794 796 798 801 803 805 806 808 810 811 813 814 816 817 819 820 822 824 825 826 828 829 830 831 832 833 835 835 837 838 838 839 840 841 842 842 843 843 844 844 844 844 845 845 846 846 847 847 847 847 847 847 847 847 848 848 849 850 851 851 852 852 853 853 853 853 853 854
749 753 755 758 760 762 764 767 771 774 776 778 780 782 784 786 789 791 793 795 797 799 801 803 805 807 808 810 811 812 814 815 817 818 820 821 823 825 826 827 828 829 830 832 832 834 835 836 837 837 838 839 839 840 840 841 841 841 841 842 842 843 844 844 845 845 844 845 845 846 846 846 846 847 848 848 849 849 850 850 850 851 851 851 851
744 748 752 755 757 759 762 765 768 771 773 775 777 778 781 783 786 788 789 792 793 796 798 800 802 804 805 807 808 809 811 812 813 814 816 817 819 821 822 823 825 826 827 828 829 830 832 832 833 834 835 836 836 836 837 838 838 838 838 839 839 840 841 842 842 842 842 842 843 844 844 844 844 845 845 846 846 847 847 847 848 848 848 849 849
740 744 748 751 754 757 760 762 765 768 770 772 773 775 778 780 782 784 786 788 790 792 794 797 799 801 802 804 805 806 807 808 810 811 812 813 815 816 818 819 820 821 822 823 825 826 827 828 829 830 832 832 833 833 834 834 835 835 836 836 837 837 839 839 840 840 840 840 840 841 842 842 842 843 843 844 844 844 844 844 845 845 845 846 846
736 740 743 747 750 753 756 759 762 764 766 768 769 772 774 777 779 781 783 785 787 789 791 793 795 797 798 799 801 802 803 804 805 806 807 809 811 812 814 815 816 817 818 819 821 822 823 823 824 826 828 828 829 829 830 830 831 832 832 833 833 834 836 837 837 838 838 838 838 839 840 840 840 840 841 841 841 841 841 842 842 842 842 843 843
734 737 740 743 746 749 752 755 757 759 761 763 765 768 771 773 775 777 779 782 784 786 787 789 791 792 794 795 797 798 799 800 801 802 804 805 807 809 810 811 813 813 814 816 817 818 818 819 820 821 823 823 824 825 825 826 827 828 829 829 830 831 833 833 834 835 835 835 835 836 837 837 837 837 837 837 838 838 838 839 839 839 839 840 840
731 734 737 739 742 745 747 749 751 754 756 759 762 764 767 769 771 773 775 778 780 782 783 785 786 788 789 791 792 794 795 796 797 798 800 802 803 805 806 808 809 810 811 811 812 813 814 815 816 816 817 818 818 820 821 822 823 824 825 826 828 828 829 830 831 832 832 832 832 832 833 833 834 833 834 835 835 835 835 835 835 835 836 836 837
726 729 732 735 737 739 741 744 746 748 752 755 758 760 762 765 767 769 771 773 775 777 778 780 782 783 785 787 788 790 791 792 793 795 797 798 800 801 802 803 805 806 807 807 808 809 810 810 811 812 812 813 814 815 817 818 820 821 822 824 825 825 825 826 827 827 827 827 827 827 828 829 830 830 831 832 831 830 830 830 831 831 833 833 834
720 724 726 729 731 734 737 740 742 745 748 750 753 756 758 760 763 765 767 768 770 772 774 776 778 779 781 783 785 787 787 787 789 790 792 794 795 796 798 799 800 801 802 803 804 805 805 806 807 807 808 809 810 811 812 813 815 816 818 819 821 821 821 822 822 822 822 822 822 823 824 824 824 825 826 826 825 825 826 827 827 828 830 831 831
714 718 720 722 726 729 733 735 738 741 743 745 748 750 753 756 758 760 761 763 765 767 770 772 774 775 777 779 780 781 782 783 784 786 787 789 791 792 794 795 796 797 798 799 800 800 801 802 802 803 804 805 806 807 808 809 810 811 812 813 815 816 816 817 817 817 818 817 817 818 819 818 818 819 819 819 820 822 823 824 824 825 827 828 828
708 712 714 717 721 725 728 731 734 736 738 740 743 745 748 751 753 755 757 759 761 763 766 768 769 770 772 774 775 776 776 778 780 782 784 785 787 789 789 790 791 792 793 794 795 795 796 797 798 799 801 802 802 803 804 805 806 806 808 808 809 809 810 811 811 812 813 813 813 814 814 812 812 814 814 816 818 818 819 820 820 822 823 824 824
704 707 710 714 717 720 723 726 729 731 733 736 738 740 744 747 749 752 753 755 757 759 761 762 764 766 768 769 770 771 771 773 775 777 779 781 783 784 785 786 787 788 789 789 790 790 792 793 794 795 796 796 797 798 799 801 802 802 803 804 804 804 804 804 804 805 806 807 808 809 807 806 807 809 809 811 813 814 815 816 817 818 819 819 820
701 703 706 710 712 715 719 722 725 727 729 732 735 737 740 742 744 747 749 751 754 755 756 758 759 761 763 764 765 765 766 768 770 772 774 776 779 780 781 782 783 784 785 785 785 786 787 789 790 791 791 792 792 793 795 796 797 798 799 799 799 798 798 798 798 798 799 800 801 800 800 801 802 802 802 805 808 809 811 811 812 813 814 814 815
697 699 702 706 708 711 715 717 720 723 726 729 732 734 736 738 740 743 745 748 750 751 752 754 755 756 758 759 760 761 761 763 765 767 769 771 774 776 777 779 780 781 782 782 782 782 783 785 785 786 787 787 787 788 790 791 793 793 793 793 793 792 792 793 792 793 795 795 794 793 793 795 795 794 796 800 802 803 804 805 807 808 809 809 810
694 696 699 701 704 707 710 713 716 719 722 726 729 731 733 734 736 739 741 743 745 746 748 749 750 752 753 755 756 756 757 759 761 763 764 767 770 773 775 776 777 779 779 779 779 780 781 782 782 782 782 782 782 784 785 786 787 787 787 787 786 787 786 785 785 787 789 789 788 787 788 789 789 789 792 794 795 796 797 799 801 803 804 806 807
690 692 695 697 700 703 706 709 712 715 719 722 724 726 729 730 733 735 737 739 741 742 744 745 746 747 749 751 752 752 753 755 757 758 760 764 767 770 772 773 774 775 775 775 776 776 778 778 778 778 778 778 779 780 781 783 783 783 782 781 782 782 780 777 778 781 782 782 782 782 783 784 785 786 788 789 790 792 794 796 797 799 801 802 803
687 689 691 693 696 699 702 705 708 711 715 717 719 722 724 727 730 732 734 736 737 738 739 740 742 744 745 747 748 748 750 752 753 755 757 761 765 767 768 770 770 770 770 771 772 773 773 773 773 774 774 774 776 777 778 780 779 778 778 777 778 777 772 771 775 777 777 778 777 777 778 779 781 781 783 784 785 788 791 790 790 792 794 796 797
684 686 688 690 693 696 699 702 705 708 710 712 715 719 721 724 727 729 731 732 733 734 736 737 739 740 741 743 744 745 747 749 751 753 755 758 761 762 764 765 765 765 765 768 769 769 768 768 769 770 770 771 773 774 776 777 776 775 773 773 774 770 764 767 772 773 772 773 774 774 775 775 776 776 777 778 780 783 783 782 783 786 787 788 790
681 683 685 687 690 693 695 698 701 704 706 709 712 715 718 721 724 726 728 729 730 732 734 735 736 737 739 740 741 743 745 747 749 750 753 756 757 759 760 760 759 761 763 764 764 764 764 764 765 766 766 768 769 770 771 772 771 770 770 771 769 762 758 764 768 766 766 768 768 768 769 769 770 770 771 772 774 776 776 775 777 778 778 779 782
678 681 683 685 688 690 692 695 698 700 703 706 709 712 715 718 720 723 725 726 728 730 732 733 734 735 736 738 739 741 742 744 746 748 750 753 754 755 756 756 756 758 760 760 759 759 760 761 762 762 763 764 765 765 766 766 765 765 766 766 760 754 756 762 762 760 762 762 760 760 760 760 763 764 765 766 767 768 768 769 770 770 771 772 774
677 679 681 683 685 687 689 692 695 697 701 704 707 710 712 715 717 719 722 724 726 727 729 730 731 732 734 735 737 738 740 741 743 745 747 749 751 752 752 752 754 756 756 755 755 755 756 757 758 758 759 759 760 760 760 760 760 760 759 756 752 751 754 756 754 754 756 755 753 754 753 754 756 757 758 759 759 760 761 762 763 764 765 767 768
675 677 679 681 683 685 687 690 692 695 698 701 704 707 709 712 714 717 719 721 723 724 726 727 729 730 731 732 734 735 737 738 740 742 744 745 746 747 747 748 750 751 751 751 750 751 752 752 753 753 754 754 754 755 755 755 754 753 751 749 748 749 750 749 748 748 748 746 746 746 745 746 748 749 750 751 752 754 756 757 759 761 762 762 763
673 674 677 679 680 683 685 687 690 693 696 698 701 704 706 709 712 714 716 718 720 721 723 724 726 728 729 730 731 732 734 735 737 738 740 740 741 742 742 744 745 746 746 745 745 746 747 748 748 749 749 749 749 749 749 749 748 746 745 745 744 744 744 743 741 740 739 738 739 737 736 738 739 740 741 743 745 748 751 753 756 758 759 761 762
671 672 675 677 679 681 683 685 688 691 693 696 699 701 704 706 708 711 713 715 717 718 720 722 724 725 727 728 729 730 732 733 734 735 736 736 737 737 738 740 741 741 741 741 742 743 744 745 745 746 746 745 745 744 744 743 742 741 741 740 739 738 737 735 732 731 732 731 730 728 728 730 732 732 734 736 740 744 747 749 752 754 756 758 760
669 671 673 675 677 680 681 684 686 689 691 694 696 699 702 704 706 708 710 712 714 715 717 720 721 723 725 726 727 729 731 731 731 732 732 733 734 735 736 737 738 739 739 739 740 741 742 742 743 742 742 742 741 741 740 739 738 737 736 735 733 731 729 726 724 724 724 724 723 722 723 725 727 728 731 735 739 742 745 747 749 751 753 755 756
669 671 673 674 676 678 680 682 685 687 690 692 694 697 699 701 703 705 707 709 711 713 715 717 719 721 723 724 726 728 729 729 729 729 730 731 732 733 735 736 737 737 737 738 739 739 739 740 740 739 739 739 738 737 736 735 734 733 731 730 728 725 722 719 717 718 720 721 722 722 723 725 726 726 729 733 734 735 738 742 746 749 750 751 753
669 670 672 673 675 677 679 681 683 686 688 690 692 694 696 699 701 703 705 707 709 711 713 715 717 719 720 722 724 725 726 727 727 728 729 730 731 733 734 734 735 736 736 737 737 737 737 737 737 736 736 735 734 733 732 730 729 727 726 725 722 719 715 712 710 712 715 718 721 724 725 727 727 725 724 725 726 727 731 737 743 745 747 749 750
670 670 672 673 675 676 678 680 682 684 687 689 691 693 695 697 699 701 703 705 707 709 711 713 715 717 718 720 722 723 725 726 727 728 729 730 731 732 732 733 734 734 735 735 735 735 735 734 734 733 732 730 730 729 727 725 723 721 719 717 714 711 708 706 705 706 708 712 717 719 720 721 722 720 718 718 721 722 724 728 732 734 737 740 741
670 671 672 673 675 676 677 679 680 683 685 688 690 693 694 696 698 700 702 704 706 708 710 712 714 715 717 718 720 721 724 725 726 728 729 730 731 731 732 732 733 733 733 733 733 733 733 732 732 731 730 728 727 725 724 721 719 717 714 712 709 706 704 702 700 700 701 704 706 707 708 710 711 710 709 710 711 711 712 716 720 724 727 729 729
672 672 672 673 674 675 677 678 680 682 685 687 690 693 695 697 698 700 702 703 705 707 709 711 713 714 716 719 720 722 723 725 726 727 728 729 730 731 731 732 732 732 732 732 732 732 731 731 730 730 729 728 726 724 722 720 717 714 711 708 706 703 699 696 694 693 693 693 694 694 695 697 697 698 699 700 702 702 703 706 712 716 719 719 721
673 674 674 674 675 676 678 679 681 683 685 687 690 692 696 698 700 702 703 704 706 707 709 712 714 715 716 719 721 723 724 726 726 727 727 728 729 730 730 730 730 730 730 730 730 730 730 729 729 728 727 726 725 723 721 718 715 712 708 704 702 699 695 690 687 686 686 685 683 683 683 684 685 687 689 691 693 696 697 698 702 706 708 709 711
675 676 676 676 677 678 680 681 683 685 687 689 690 692 695 699 702 705 706 707 708 710 711 713 715 717 718 720 721 723 725 726 726 726 727 728 729 729 729 729 729 729 729 728 728 728 728 728 727 726 725 724 722 720 719 716 713 710 706 702 697 694 691 686 682 681 680 678 676 675 675 675 676 677 677 679 682 685 687 689 692 696 698 700 703
676 677 678 678 679 680 682 683 685 687 689 690 692 694 696 699 702 706 709 710 711 713 714 715 716 718 720 721 722 724 725 726 726 726 727 727 728 728 728 728 728 728 728 727 727 727 727 727 726 725 724 722 720 718 715 713 709 706 703 699 694 689 685 682 679 676 672 670 670 669 668 668 668 668 669 670 672 675 677 679 682 685 689 694 700
678 679 679 680 681 682 684 685 687 689 691 692 694 696 698 700 702 706 708 711 713 714 715 717 718 719 721 722 723 724 725 725 726 726 726 727 727 728 728 727 727 727 727 727 727 727 727 726 725 724 722 721 718 716 712 710 707 703 699 694 689 683 679 675 671 668 665 663 661 660 659 659 660 660 661 661 662 664 667 671 675 679 682 687 692
680 681 681 682 683 684 685 687 688 691 693 694 696 698 700 702 704 706 708 710 712 714 716 718 719 720 722 723 723 724 724 725 725 726 726 726 726 726 726 726 726 726 726 727 727 727 726 725 724 723 721 719 717 714 711 707 704 700 695 689 683 677 671 666 661 658 656 655 653 650 650 650 650 651 652 653 653 655 656 660 665 669 673 678 683
681 683 683 684 685 686 687 688 690 692 694 696 698 699 701 703 705 707 708 710 712 714 716 718 719 720 722 722 723 724 724 724 724 724 724 725 725 725 725 725 725 725 725 726 726 725 724 724 723 722 720 717 715 712 709 705 701 696 691 685 677 670 663 657 652 648 647 646 644 643 642 641 641 642 643 644 644 645 646 648 653 658 663 669 677
684 685 686 686 687 688 689 690 692 694 695 697 699 700 702 704 706 708 709 711 713 715 716 717 719 720 721 722 723 723 722 722 722 723 724 725 725 725 725 725 725 725 724 724 723 723 722 721 721 719 718 715 713 709 706 702 698 692 686 679 672 663 655 649 644 641 638 637 637 636 635 633 632 634 635 635 636 636 637 640 645 651 658 664 671
686 687 688 689 690 690 691 692 694 695 697 698 700 702 703 705 707 709 710 712 713 714 715 716 718 719 720 721 722 722 722 722 723 724 725 725 725 725 725 725 724 724 723 723 722 721 720 719 718 717 715 712 710 706 703 699 695 689 683 675 667 657 647 639 634 631 629 628 629 629 629 627 627 627 628 628 629 631 633 635 638 645 654 662 668
689 689 690 691 692 693 694 695 696 698 699 700 702 703 705 707 708 710 711 712 713 714 715 716 718 719 720 721 722 722 723 723 724 724 725 725 725 724 724 724 724 724 723 722 722 720 719 718 716 714 712 710 707 704 700 697 692 687 682 675 666 655 643 634 627 623 622 622 622 623 623 623 623 623 622 621 621 622 625 631 635 640 648 657 665
691 691 692 693 694 695 696 697 698 699 700 702 704 705 706 708 709 710 712 713 714 715 716 717 718 720 722 723 723 723 724 724 724 724 724 724 724 723 723 723 723 723 723 722 721 719 717 716 715 713 711 709 706 703 699 696 691 686 681 675 668 658 646 634 625 620 618 618 618 618 619 619 619 619 618 617 617 617 617 621 631 641 648 654 662
693 694 694 695 696 697 697 699 701 702 703 705 706 707 709 710 711 712 713 715 716 717 719 720 721 723 724 725 725 725 724 723 723 723 723 723 723 723 723 723 722 722 722 720 719 717 715 714 713 712 710 708 705 702 699 695 691 687 682 677 672 664 651 637 628 624 621 619 617 615 615 615 616 616 615 612 615 623 627 626 630 639 648 655 663
695 696 697 698 698 699 701 703 704 705 706 707 709 711 712 713 713 715 716 717 719 721 722 723 724 725 726 726 725 724 723 723 723 723 723 723 723 723 723 722 721 721 720 719 717 715 713 712 712 711 709 707 705 702 699 696 692 689 685 680 676 669 656 641 632 630 629 626 622 620 619 618 616 619 621 617 615 626 639 642 640 644 653 661 670
698 699 700 701 702 703 705 706 707 708 710 711 713 714 715 715 716 718 719 720 722 723 724 725 725 725 725 725 724 724 723 723 723 723 723 723 724 723 722 721 720 719 719 717 715 714 712 712 711 710 708 707 705 702 700 697 694 691 688 683 678 672 662 649 640 636 635 634 630 627 627 627 626 629 634 634 631 635 645 653 654 656 664 673 681
701 702 703 704 706 707 709 709 710 712 713 714 715 716 717 718 720 721 722 724 725 725 726 727 726 726 725 725 724 724 724 723 723 724 724 724 724 723 721 719 718 718 717 715 713 712 712 711 710 709 707 705 704 702 700 698 695 692 689 686 680 674 667 659 652 647 644 642 638 633 632 634 638 641 645 648 650 653 659 665 667 669 675 682 689
705 707 708 709 710 711 712 713 714 715 716 717 719 720 722 723 724 726 727 728 728 728 729 728 728 727 726 725 724 725 725 725 725 725 725 724 723 722 720 718 717 716 715 713 712 712 712 711 710 708 706 704 703 702 700 698 696 694 691 688 684 678 672 666 661 657 653 651 648 644 640 641 645 649 652 655 659 664 670 674 677 680 685 690 694
709 711 712 713 714 716 717 718 719 720 722 723 725 726 728 729 730 731 732 732 732 732 731 730 729 728 727 727 727 727 726 726 726 725 724 724 722 721 719 718 717 716 714 713 712 712 712 711 709 707 706 704 703 702 700 698 697 695 693 690 687 683 678 673 668 664 661 658 656 654 652 652 654 656 658 661 666 671 675 680 684 687 691 694 697
713 715 716 718 719 720 722 724 725 726 727 729 730 731 733 733 734 735 735 735 735 734 733 732 732 731 731 731 730 729 728 727 726 725 724 723 722 720 719 717 716 715 714 714 713 713 712 711 709 707 706 704 703 702 700 699 698 697 695 692 690 687 683 679 674 670 667 666 664 662 661 661 663 664 666 668 672 675 679 684 688 691 693 696 699
718 720 721 723 724 725 727 728 729 730 732 733 734 735 736 736 737 737 737 737 737 736 736 736 735 734 734 733 732 731 730 729 726 724 723 722 722 721 720 718 717 716 715 715 715 714 713 711 709 707 706 705 704 703 701 700 699 698 696 694 692 690 687 684 680 677 674 672 671 670 669 668 669 671 672 674 677 679 683 686 690 693 695 698 700
723 725 726 727 728 729 731 732 733 734 735 736 737 738 738 739 740 740 740 740 740 740 740 739 738 737 736 735 734 732 731 729 727 725 724 723 722 722 721 720 719 718 717 717 717 716 713 711 710 708 707 706 705 704 703 702 700 699 697 696 694 692 690 687 685 682 681 679 677 676 676 676 677 678 679 680 682 684 687 689 692 695 697 699 701
728 729 730 731 732 734 735 735 736 738 738 739 740 740 741 742 743 743 744 744 744 743 743 742 741 740 739 737 736 734 733 731 729 727 725 724 723 723 722 721 720 719 719 719 718 717 715 713 711 710 709 708 707 706 705 704 702 700 699 698 696 694 692 691 689 687 685 684 683 682 682 682 683 684 685 686 687 689 690 692 695 697 698 700 702
733 733 734 735 736 738 738 739 740 741 742 742 743 744 744 745 745 746 747 747 747 747 747 745 744 743 742 740 738 737 735 733 732 730 728 726 725 724 723 722 721 720 720 720 718 717 715 714 712 711 710 709 708 707 706 705 704 702 701 700 699 696 694 693 692 690 689 688 687 687 686 686 687 687 688 689 690 691 692 694 696 698 699 701 703